This is the latest recevied weather packets stored in our database for station/object DL9TPA-1. If no packets are shown the sender has not sent any weather packets the latest 10 day(s).
| Time | Temp. | Humidity | Pressure | Rain* | Wind** | Luminosity | Snow |
|---|---|---|---|---|---|---|---|
| 1777474231 | 12.78° C | 34% | 1026.5 hPa | 0 mm | - | - | - |
| 1777473628 | 13.33° C | 33% | 1026.5 hPa | 0 mm | - | - | - |
| 1777473025 | 14.44° C | 34% | 1026.5 hPa | 0 mm | - | - | - |
| 1777472423 | 15° C | 33% | 1026.5 hPa | 0 mm | - | - | - |
| 1777471822 | 15° C | 33% | 1026.4 hPa | 0 mm | - | - | - |
| 1777471219 | 15° C | 34% | 1026.4 hPa | 0 mm | - | - | - |
| 1777470618 | 15° C | 34% | 1026.5 hPa | 0 mm | - | - | - |
| 1777470017 | 15.56° C | 33% | 1026.7 hPa | 0 mm | - | - | - |
| 1777469416 | 15.56° C | 34% | 1026.5 hPa | 0 mm | - | - | - |
| 1777468813 | 16.11° C | 34% | 1026.4 hPa | 0 mm | - | - | - |
| 1777468213 | 16.11° C | 35% | 1026.5 hPa | 0 mm | - | - | - |
| 1777467608 | 15.56° C | 35% | 1026.4 hPa | 0 mm | - | - | - |
| 1777467008 | 15.56° C | 35% | 1026.4 hPa | 0 mm | - | - | - |
| 1777466406 | 15.56° C | 34% | 1026.4 hPa | 0 mm | - | - | - |
| 1777465801 | 15.56° C | 34% | 1026.4 hPa | 0 mm | - | - | - |
| 1777465200 | 16.11° C | 34% | 1026.4 hPa | 0 mm | - | - | - |
| 1777464601 | 16.11° C | 33% | 1026.4 hPa | 0 mm | - | - | - |
| 1777463997 | 15.56° C | 33% | 1026.4 hPa | 0 mm | - | - | - |
| 1777463395 | 15.56° C | 34% | 1026.4 hPa | 0 mm | - | - | - |
| 1777462793 | 15.56° C | 34% | 1026.4 hPa | 0 mm | - | - | - |
| 1777462190 | 15.56° C | 35% | 1026.4 hPa | 0 mm | - | - | - |
| 1777461588 | 15.56° C | 34% | 1026.4 hPa | 0 mm | - | - | - |
| 1777460987 | 16.11° C | 34% | 1026.3 hPa | 0 mm | - | - | - |
| 1777460383 | 15.56° C | 34% | 1026.3 hPa | 0 mm | - | - | - |
| 1777459782 | 15.56° C | 34% | 1026.4 hPa | 0 mm | - | - | - |
* Rain latest hour (hover to see other rain measurements)
** Current wind speed in m/s (hover to see current wind gust speed)